Regional Weather Roundup
Issued by NWS Newport/Morehead, NC

Current Version | Previous Version | Graphics & Text | Print | Product List | Glossary Off
Versions: 1 2 3 4 5 6 7 8 9 10 11 12 13 14 15 16 17 18 19 20 21 22 23 24 25 26 27 28 29 30 31 32 33 34 35 36 37 38 39 40 41 42 43 44 45 46 47 48 49 50

000
ASUS42 KMHX 300713
RWRMHX
WEATHER ROUNDUP FOR EASTERN NORTH CAROLINA
NATIONAL WEATHER SERVICE NEWPORT/MOREHEAD CITY NC
300 AM EDT FRI SEP 30 2016

NOTE: "FAIR" INDICATES FEW OR NO CLOUDS BELOW 12,000 FEET
WITH NO SIGNIFICANT WEATHER AND/OR OBSTRUCTIONS TO VISIBILITY

NCZ015>017-031-032-045>047-102-103-300800-
NORTH COAST

CITY           SKY/WX    TMP DP  RH WIND       PRES   REMARKS
EDENTON        FOG       71  71 100 CALM      30.03S VSB 1/2
ELIZABETH CITY MOCLDY    69  69 100 CALM      30.02S FOG
KITTY HAWK     SUNNY     72  72 100 CALM      30.00F FOG
MANTEO         PTCLDY    71  71 100 CALM      30.02F

$$

NCZ045>047-081-094-103-104-300800-
CENTRAL COAST

CITY           SKY/WX    TMP DP  RH WIND       PRES   REMARKS
FRISCO         CLEAR     77  74  90 S5        30.02S

$$

NCZ095-097-098-100-101-300800-
SOUTHERN COAST

CITY           SKY/WX    TMP DP  RH WIND       PRES   REMARKS
BEAUFORT       CLEAR     78  74  87 SE7       29.99F
CEDAR ISLAND   NOT AVBL
JACKSONVILLE   PTCLDY    72  70  93 CALM      29.98F
PINEY ISLAND   SUNNY    N/A N/A N/A SE6       30.00F
WILMINGTON     CLEAR     76  73  91 SE6       29.98S


$$

NCZ011>013-027>030-043-044-078>080-089-090>093-098-300800-
COASTAL PLAIN

CITY           SKY/WX    TMP DP  RH WIND       PRES   REMARKS
AHOSKIE        FOG       69  69  99 CALM      30.03S VSB 3/4
CLINTON        CLEAR     71  71 100 CALM      29.99F
ELIZABETHTOWN  CLEAR     71  71 100 CALM      29.98S FOG
GOLDSBORO      PTCLDY    70  70 100 E6        29.97F
GREENVILLE     RAIN      72  72 100 CALM      30.03S VSB 1/2
HAVELOCK       CLEAR     73  71  93 SE5       30.00F
KENANSVILLE    FOG       70  70 100 CALM      29.99F VSB 1
KINSTON        MOCLDY    70  69  98 CALM      30.01S FOG
NEW BERN       MOCLDY    70  68  93 CALM      30.00F FOG
RICHLANDS      CLEAR     69  69 100 N3        29.99F
ROCKY MOUNT    CLOUDY    72  72 100 CALM      30.01F
WASHINGTON     FOG       71  71  99 CALM      30.01S VSB 1/4
WHITEVILLE     NOT AVBL

$$

AMZ130-135-150-152-154-156-158-170-250-252-270-ANZ085-086-088-633-658-670-300800-
MARINE OBSERVATIONS

STATION/POSITION TIME  TEMP    WIND        PRES    WAVE   SWELL
                       AIR SEA DIR/SP/G            HT/PER HT/PER
                 (UTC) (F)     (DEG/KT/KT) (MB)    (FT/S) (FT/S)
CHESAPEAKE LIGHT NOT AVBL
64 E VA BEACH    0650   74 73  120/  4/  6 1016.4    9/10   8/10
DUCK             0648           CALM  /  1 1015.8
2 E DUCK         0641      76                N/A     6/ 9   2/11
OREGON INLET     0648          290/  1/  2 1016.3
13E OREGON INLT  0630      77                N/A     6/11   7/11
HATTERAS CG      0648          200/  4/  6 1016.1
DIAMOND BUOY     0650   80 76  190/ 10/ 12 1016.2    4/ 9   3/ 9
CAPE LOOKOUT     0700   79     160/  9/ 10 1015.4
BEAUFORT LAB     0648          170/  9/ 11 1015.1
30 SE NEW RVR IN 0608   81 82  190/ 12/ 16 1015.8
30 SE NEW RVR IN 0655      82                N/A     4/ 5
27 SE WRIGHTSVLE 0608   81 81  190/ 12/ 16 1015.8
5 SE WRIGHTSVLE  NOT AVBL
225 S CAPE HAT   0650   80 83  220/  8/ 16 1017.2    4/ 6   3/ 6
41 SE CHARLESTON 0650   82 82  200/ 14/ 16 1014.0    4/ 5   2/10

$$




USA.gov is the U.S. government's official web portal to all federal, state and local government web resources and services.